| time (UTC) | temp F | wind direction | speed knots | gust knots | rain 1hr in | rain 24hr in | rain mn in | humidity % | barometer mb |
| 20260507195852 | 66 | 26 | 4.3 | 7.0 | 0.00 | 0.00 | 0.00 | 70 | 1017.9 |
| 20260507195350 | 65 | 8 | 5.2 | 7.8 | 0.00 | 0.00 | 0.00 | 71 | 1017.9 |
| 20260507194847 | 65 | 0 | 5.2 | 6.1 | 0.00 | 0.00 | 0.00 | 73 | 1018.2 |
| 20260507194344 | 64 | 26 | 2.6 | 4.3 | 0.00 | 0.00 | 0.00 | 77 | 1017.9 |
| 20260507193840 | 64 | 344 | 4.3 | 5.2 | 0.00 | 0.00 | 0.00 | 77 | 1018.5 |
| 20260507193338 | 64 | 88 | 4.3 | 5.2 | 0.00 | 0.00 | 0.00 | 78 | 1018.2 |
| 20260507192833 | 64 | 37 | 0.0 | 0.9 | 0.00 | 0.00 | 0.00 | 75 | 1018.2 |
| 20260507192330 | 64 | 9 | 2.6 | 4.3 | 0.00 | 0.00 | 0.00 | 73 | 1018.5 |
| 20260507191826 | 64 | 359 | 4.3 | 5.2 | 0.00 | 0.00 | 0.00 | 71 | 1018.9 |
| 20260507191322 | 64 | 39 | 0.9 | 0.9 | 0.00 | 0.00 | 0.00 | 71 | 1018.5 |
| 20260507190820 | 64 | 45 | 0.9 | 1.7 | 0.00 | 0.00 | 0.00 | 71 | 1018.9 |
| 20260507190318 | 64 | 14 | 3.5 | 5.2 | 0.00 | 0.00 | 0.00 | 71 | 1018.9 |
| 20260507185817 | 64 | 344 | 2.6 | 5.2 | 0.00 | 0.00 | 0.00 | 71 | 1018.9 |
| 20260507185313 | 65 | 12 | 1.7 | 2.6 | 0.00 | 0.00 | 0.00 | 71 | 1018.9 |
| 20260507184810 | 65 | 11 | 0.9 | 0.9 | 0.00 | 0.00 | 0.00 | 69 | 1018.9 |
| 20260507184308 | 65 | 341 | 5.2 | 6.1 | 0.00 | 0.00 | 0.00 | 69 | 1018.9 |
| 20260507183805 | 66 | 344 | 4.3 | 5.2 | 0.00 | 0.00 | 0.00 | 70 | 1019.7 |
| 20260507183302 | 65 | 1 | 2.6 | 4.3 | 0.00 | 0.00 | 0.00 | 71 | 1019.3 |
| 20260507182759 | 64 | 3 | 5.2 | 7.8 | 0.00 | 0.00 | 0.00 | 71 | 1019.7 |
| 20260507182254 | 65 | 12 | 5.2 | 6.1 | 0.00 | 0.00 | 0.00 | 70 | 1019.3 |
| 20260507181751 | 65 | 342 | 3.5 | 5.2 | 0.00 | 0.00 | 0.00 | 70 | 1018.9 |
| 20260507181247 | 64 | 7 | 6.1 | 7.8 | 0.00 | 0.00 | 0.00 | 71 | 1018.9 |
| 20260507180744 | 64 | 71 | 5.2 | 6.1 | 0.00 | 0.00 | 0.00 | 71 | 1018.9 |
| 20260507180241 | 64 | 68 | 1.7 | 1.7 | 0.00 | 0.00 | 0.00 | 72 | 1018.5 |
| 20260507175736 | 64 | 45 | 0.9 | 1.7 | 0.00 | 0.00 | 0.00 | 71 | 1018.9 |
| 20260507175234 | 64 | 11 | 4.3 | 5.2 | 0.00 | 0.00 | 0.00 | 72 | 1018.9 |
| 20260507174731 | 63 | 332 | 0.9 | 1.7 | 0.00 | 0.00 | 0.00 | 74 | 1019.3 |
| 20260507174229 | 63 | 315 | 1.7 | 1.7 | 0.00 | 0.00 | 0.00 | 73 | 1018.9 |
| 20260507173726 | 63 | 44 | 0.9 | 0.9 | 0.00 | 0.00 | 0.00 | 74 | 1018.9 |
| 20260507173223 | 62 | 46 | 0.9 | 1.7 | 0.00 | 0.00 | 0.00 | 74 | 1018.5 |
| 20260507172720 | 62 | 341 | 0.9 | 0.9 | 0.00 | 0.00 | 0.00 | 75 | 1018.9 |
| 20260507172217 | 62 | 42 | 0.0 | 0.9 | 0.00 | 0.00 | 0.00 | 74 | 1018.9 |
| 20260507171716 | 62 | 56 | 1.7 | 2.6 | 0.00 | 0.00 | 0.00 | 75 | 1019.7 |
| 20260507171214 | 62 | 346 | 3.5 | 4.3 | 0.00 | 0.00 | 0.00 | 76 | 1020.3 |
| 20260507170711 | 61 | 51 | 1.7 | 1.7 | 0.00 | 0.00 | 0.00 | 76 | 1019.7 |
| 20260507170208 | 61 | 21 | 1.7 | 1.7 | 0.00 | 0.00 | 0.00 | 77 | 1020.0 |
| 20260507165703 | 61 | 25 | 4.3 | 5.2 | 0.00 | 0.00 | 0.00 | 76 | 1020.0 |
| 20260507165200 | 61 | 349 | 2.6 | 2.6 | 0.00 | 0.00 | 0.00 | 78 | 1020.0 |
| 20260507164656 | 61 | 52 | 2.6 | 5.2 | 0.00 | 0.00 | 0.00 | 80 | 1020.0 |
| 20260507164153 | 60 | 5 | 6.1 | 7.8 | 0.00 | 0.00 | 0.00 | 79 | 1020.0 |
| 20260507163650 | 60 | 339 | 5.2 | 8.7 | 0.00 | 0.00 | 0.00 | 79 | 1019.7 |
| 20260507163148 | 61 | 75 | 2.6 | 5.2 | 0.00 | 0.00 | 0.00 | 80 | 1020.0 |
| 20260507162644 | 61 | 6 | 4.3 | 5.2 | 0.00 | 0.00 | 0.00 | 79 | 1020.3 |
| 20260507162140 | 60 | 18 | 2.6 | 2.6 | 0.00 | 0.00 | 0.00 | 78 | 1020.3 |
| 20260507161636 | 61 | 357 | 4.3 | 6.1 | 0.00 | 0.00 | 0.00 | 78 | 1020.3 |
| 20260507161133 | 61 | 1 | 5.2 | 6.1 | 0.00 | 0.00 | 0.00 | 79 | 1020.3 |
| 20260507160630 | 61 | 8 | 7.0 | 7.8 | 0.00 | 0.00 | 0.00 | 80 | 1019.7 |
| 20260507160126 | 61 | 350 | 6.1 | 7.0 | 0.00 | 0.00 | 0.00 | 81 | 1019.7 |
| 20260507155622 | 61 | 341 | 3.5 | 4.3 | 0.00 | 0.00 | 0.00 | 81 | 1019.7 |
| 20260507155119 | 60 | 319 | 2.6 | 4.3 | 0.00 | 0.00 | 0.00 | 82 | 1020.3 |
| 20260507154615 | 60 | 29 | 2.6 | 4.3 | 0.00 | 0.00 | 0.00 | 82 | 1020.3 |
| 20260507154113 | 60 | 334 | 4.3 | 5.2 | 0.00 | 0.00 | 0.00 | 82 | 1020.7 |
| 20260507153609 | 60 | 340 | 3.5 | 4.3 | 0.00 | 0.00 | 0.00 | 82 | 1020.7 |
| 20260507153106 | 60 | 341 | 3.5 | 4.3 | 0.00 | 0.00 | 0.00 | 82 | 1020.7 |
| 20260507152602 | 60 | 30 | 2.6 | 2.6 | 0.00 | 0.00 | 0.00 | 83 | 1020.7 |
| 20260507152058 | 60 | 354 | 3.5 | 4.3 | 0.00 | 0.00 | 0.00 | 82 | 1020.3 |
| 20260507151554 | 60 | 2 | 4.3 | 5.2 | 0.00 | 0.00 | 0.00 | 83 | 1020.3 |
| 20260507151051 | 60 | 4 | 1.7 | 2.6 | 0.00 | 0.00 | 0.00 | 83 | 1020.7 |
| 20260507150549 | 60 | 359 | 2.6 | 5.2 | 0.00 | 0.00 | 0.00 | 83 | 1020.3 |
| 20260507150045 | 60 | 14 | 7.0 | 8.7 | 0.00 | 0.00 | 0.00 | 83 | 1020.7 |
| 20260507145540 | 60 | 7 | 2.6 | 4.3 | 0.00 | 0.00 | 0.00 | 83 | 1020.7 |
| 20260507145038 | 60 | 310 | 2.6 | 2.6 | 0.00 | 0.00 | 0.00 | 83 | 1020.3 |
| 20260507144534 | 60 | 17 | 3.5 | 4.3 | 0.00 | 0.00 | 0.00 | 82 | 1020.3 |
| 20260507144032 | 60 | 20 | 1.7 | 1.7 | 0.00 | 0.00 | 0.00 | 83 | 1020.0 |
| 20260507143529 | 60 | 349 | 3.5 | 4.3 | 0.00 | 0.00 | 0.00 | 83 | 1019.7 |
| 20260507143027 | 60 | 358 | 6.1 | 7.8 | 0.00 | 0.00 | 0.00 | 83 | 1020.0 |
| 20260507142522 | 60 | 64 | 4.3 | 6.1 | 0.00 | 0.00 | 0.00 | 83 | 1020.3 |
| 20260507142019 | 60 | 345 | 3.5 | 5.2 | 0.00 | 0.00 | 0.00 | 83 | 1020.3 |
| 20260507141515 | 60 | 34 | 5.2 | 7.0 | 0.00 | 0.00 | 0.00 | 83 | 1019.7 |
| 20260507141012 | 60 | 28 | 5.2 | 7.0 | 0.00 | 0.00 | 0.00 | 84 | 1019.7 |
| 20260507140509 | 60 | 14 | 8.7 | 9.6 | 0.00 | 0.00 | 0.00 | 84 | 1020.0 |
| 20260507140006 | 60 | 9 | 2.6 | 4.3 | 0.00 | 0.00 | 0.00 | 84 | 1019.7 |
| 20260507135503 | 60 | 17 | 7.8 | 8.7 | 0.00 | 0.00 | 0.00 | 84 | 1020.0 |
| 20260507135000 | 60 | 8 | 6.1 | 7.8 | 0.00 | 0.00 | 0.00 | 84 | 1019.3 |
| 20260507134456 | 60 | 57 | 3.5 | 5.2 | 0.00 | 0.00 | 0.00 | 84 | 1019.7 |
| 20260507133952 | 61 | 19 | 6.1 | 7.0 | 0.00 | 0.00 | 0.00 | 85 | 1019.7 |
| 20260507133448 | 61 | 21 | 4.3 | 5.2 | 0.00 | 0.00 | 0.00 | 85 | 1019.3 |
| 20260507132947 | 61 | 357 | 2.6 | 2.6 | 0.00 | 0.00 | 0.00 | 85 | 1018.9 |
| 20260507132443 | 60 | 18 | 2.6 | 2.6 | 0.00 | 0.00 | 0.00 | 85 | 1018.9 |
| 20260507131939 | 60 | 57 | 1.7 | 2.6 | 0.00 | 0.00 | 0.00 | 86 | 1019.3 |
| 20260507131436 | 60 | 55 | 3.5 | 5.2 | 0.00 | 0.00 | 0.00 | 86 | 1018.9 |
| 20260507130933 | 60 | 309 | 2.6 | 4.3 | 0.00 | 0.00 | 0.00 | 86 | 1019.7 |
| 20260507130431 | 60 | 35 | 4.3 | 6.1 | 0.00 | 0.00 | 0.00 | 86 | 1019.3 |
| 20260507125929 | 60 | 9 | 4.3 | 6.1 | 0.00 | 0.00 | 0.00 | 86 | 1019.3 |
| 20260507125427 | 60 | 8 | 4.3 | 6.1 | 0.00 | 0.00 | 0.00 | 86 | 1019.3 |
| 20260507124924 | 60 | 52 | 3.5 | 5.2 | 0.00 | 0.00 | 0.00 | 86 | 1019.3 |
| 20260507124420 | 60 | 77 | 2.6 | 4.3 | 0.00 | 0.00 | 0.00 | 87 | 1019.3 |
| 20260507123919 | 60 | 347 | 5.2 | 6.1 | 0.00 | 0.00 | 0.00 | 87 | 1019.3 |
| 20260507123418 | 60 | 15 | 5.2 | 7.0 | 0.00 | 0.00 | 0.00 | 87 | 1019.3 |
| 20260507122912 | 60 | 19 | 5.2 | 7.0 | 0.00 | 0.00 | 0.00 | 87 | 1018.9 |
| 20260507122407 | 60 | 42 | 5.2 | 7.0 | 0.00 | 0.00 | 0.00 | 87 | 1018.9 |
| 20260507121904 | 60 | 344 | 3.5 | 5.2 | 0.00 | 0.00 | 0.00 | 87 | 1019.3 |
| 20260507121359 | 60 | 42 | 1.7 | 2.6 | 0.00 | 0.00 | 0.00 | 88 | 1018.9 |
| 20260507120856 | 59 | 358 | 5.2 | 6.1 | 0.00 | 0.00 | 0.00 | 88 | 1018.5 |
| 20260507120352 | 59 | 49 | 1.7 | 2.6 | 0.00 | 0.00 | 0.00 | 88 | 1018.5 |
| 20260507115848 | 59 | 279 | 2.6 | 2.6 | 0.00 | 0.00 | 0.00 | 88 | 1018.2 |
| 20260507115344 | 59 | 353 | 3.5 | 4.3 | 0.00 | 0.00 | 0.00 | 88 | 1018.5 |
| 20260507114840 | 59 | 31 | 3.5 | 4.3 | 0.00 | 0.00 | 0.00 | 88 | 1018.2 |
| 20260507114337 | 59 | 26 | 4.3 | 5.2 | 0.00 | 0.00 | 0.00 | 88 | 1018.2 |
| 20260507113835 | 60 | 357 | 2.6 | 2.6 | 0.00 | 0.00 | 0.00 | 88 | 1018.5 |
| 20260507113332 | 59 | 13 | 1.7 | 2.6 | 0.00 | 0.00 | 0.00 | 87 | 1018.5 |
| 20260507112829 | 59 | 292 | 2.6 | 2.6 | 0.00 | 0.00 | 0.00 | 87 | 1018.2 |
| 20260507112326 | 59 | 10 | 1.7 | 2.6 | 0.00 | 0.00 | 0.00 | 88 | 1018.2 |
| 20260507111824 | 60 | 261 | 3.5 | 4.3 | 0.00 | 0.00 | 0.00 | 88 | 1018.5 |
| 20260507111320 | 60 | 306 | 2.6 | 2.6 | 0.00 | 0.00 | 0.00 | 87 | 1018.5 |
| 20260507110816 | 60 | 2 | 4.3 | 6.1 | 0.00 | 0.00 | 0.00 | 87 | 1018.2 |
| 20260507110313 | 59 | 345 | 0.9 | 1.7 | 0.00 | 0.00 | 0.00 | 87 | 1018.2 |
| 20260507105810 | 60 | 1 | 4.3 | 6.1 | 0.00 | 0.00 | 0.00 | 87 | 1018.5 |
| 20260507105307 | 60 | 45 | 3.5 | 4.3 | 0.00 | 0.00 | 0.00 | 87 | 1018.5 |
| 20260507104804 | 60 | 351 | 3.5 | 4.3 | 0.00 | 0.00 | 0.00 | 87 | 1018.2 |
| 20260507104300 | 60 | 10 | 5.2 | 7.0 | 0.00 | 0.00 | 0.00 | 87 | 1018.2 |
| 20260507103756 | 60 | 350 | 4.3 | 5.2 | 0.00 | 0.00 | 0.00 | 87 | 1017.9 |
| 20260507103252 | 60 | 2 | 4.3 | 5.2 | 0.00 | 0.00 | 0.00 | 87 | 1017.9 |
| 20260507102749 | 60 | 85 | 5.2 | 7.8 | 0.00 | 0.00 | 0.00 | 87 | 1017.9 |
| 20260507102246 | 60 | 4 | 3.5 | 5.2 | 0.00 | 0.00 | 0.00 | 87 | 1017.9 |
| 20260507101742 | 60 | 12 | 6.1 | 7.0 | 0.00 | 0.00 | 0.00 | 86 | 1017.9 |
| 20260507101237 | 60 | 347 | 5.2 | 6.1 | 0.00 | 0.00 | 0.00 | 86 | 1017.5 |
| 20260507100734 | 60 | 352 | 2.6 | 2.6 | 0.00 | 0.00 | 0.00 | 86 | 1017.9 |
| 20260507100233 | 60 | 344 | 4.3 | 5.2 | 0.00 | 0.00 | 0.00 | 86 | 1017.2 |
| 20260507095730 | 60 | 12 | 3.5 | 5.2 | 0.00 | 0.00 | 0.00 | 86 | 1017.9 |
| 20260507095226 | 60 | 19 | 2.6 | 2.6 | 0.00 | 0.00 | 0.00 | 86 | 1017.9 |
| 20260507094723 | 60 | 295 | 2.6 | 4.3 | 0.00 | 0.00 | 0.00 | 86 | 1017.5 |
| 20260507094220 | 60 | 332 | 3.5 | 4.3 | 0.00 | 0.00 | 0.00 | 86 | 1017.5 |
| 20260507093717 | 60 | 24 | 1.7 | 2.6 | 0.00 | 0.00 | 0.00 | 86 | 1017.5 |
| 20260507093216 | 60 | 358 | 5.2 | 6.1 | 0.00 | 0.00 | 0.00 | 85 | 1017.2 |
| 20260507092713 | 60 | 43 | 4.3 | 6.1 | 0.00 | 0.00 | 0.00 | 85 | 1017.5 |
| 20260507092209 | 60 | 15 | 3.5 | 4.3 | 0.00 | 0.00 | 0.00 | 85 | 1017.2 |
| 20260507091705 | 60 | 5 | 3.5 | 5.2 | 0.00 | 0.00 | 0.00 | 85 | 1017.5 |
| 20260507091202 | 60 | 4 | 3.5 | 4.3 | 0.00 | 0.00 | 0.00 | 85 | 1017.2 |
| 20260507090657 | 60 | 336 | 3.5 | 4.3 | 0.00 | 0.00 | 0.00 | 85 | 1017.2 |
| 20260507090155 | 60 | 15 | 3.5 | 4.3 | 0.00 | 0.00 | 0.00 | 85 | 1017.2 |
| 20260507085652 | 61 | 356 | 1.7 | 1.7 | 0.00 | 0.00 | 0.00 | 85 | 1017.2 |
| 20260507085148 | 61 | 349 | 1.7 | 1.7 | 0.00 | 0.00 | 0.00 | 85 | 1017.5 |
| 20260507084646 | 61 | 5 | 1.7 | 1.7 | 0.00 | 0.00 | 0.00 | 85 | 1017.2 |
| 20260507084142 | 61 | 358 | 2.6 | 2.6 | 0.00 | 0.00 | 0.00 | 84 | 1017.2 |
| 20260507083639 | 61 | 340 | 2.6 | 2.6 | 0.00 | 0.00 | 0.00 | 84 | 1017.5 |
| 20260507083136 | 61 | 8 | 3.5 | 4.3 | 0.00 | 0.00 | 0.00 | 84 | 1017.2 |
| 20260507082631 | 61 | 287 | 0.0 | 0.0 | 0.00 | 0.00 | 0.00 | 85 | 1017.2 |
| 20260507082128 | 61 | 341 | 3.5 | 4.3 | 0.00 | 0.00 | 0.00 | 85 | 1017.2 |
| 20260507081625 | 61 | 20 | 0.9 | 0.9 | 0.00 | 0.00 | 0.00 | 85 | 1016.9 |
| 20260507081121 | 61 | 323 | 0.9 | 1.7 | 0.00 | 0.00 | 0.00 | 85 | 1016.9 |
| 20260507080618 | 61 | 333 | 1.7 | 1.7 | 0.00 | 0.00 | 0.00 | 84 | 1016.5 |
| 20260507080114 | 61 | 334 | 0.9 | 0.9 | 0.00 | 0.00 | 0.00 | 85 | 1016.9 |
| 20260507075609 | 61 | 332 | 0.9 | 1.7 | 0.00 | 0.00 | 0.00 | 85 | 1016.9 |
| 20260507075105 | 61 | 334 | 2.6 | 2.6 | 0.00 | 0.00 | 0.00 | 85 | 1016.5 |
| 20260507074603 | 61 | 18 | 1.7 | 1.7 | 0.00 | 0.00 | 0.00 | 85 | 1016.5 |
| 20260507074101 | 61 | 320 | 0.9 | 1.7 | 0.00 | 0.00 | 0.00 | 85 | 1016.9 |
| 20260507073556 | 61 | 353 | 2.6 | 2.6 | 0.00 | 0.00 | 0.00 | 85 | 1016.5 |
| 20260507073053 | 61 | 19 | 0.9 | 0.9 | 0.00 | 0.00 | 0.00 | 84 | 1017.2 |
| 20260507072550 | 61 | 257 | 0.0 | 0.0 | 0.00 | 0.00 | 0.00 | 84 | 1017.2 |
| 20260507072048 | 61 | 331 | 1.7 | 1.7 | 0.00 | 0.00 | 0.00 | 84 | 1016.9 |
| 20260507071545 | 61 | 341 | 2.6 | 2.6 | 0.00 | 0.00 | 0.00 | 84 | 1016.9 |
| 20260507071041 | 61 | 345 | 1.7 | 1.7 | 0.00 | 0.00 | 0.00 | 84 | 1016.9 |
| 20260507070538 | 61 | 327 | 1.7 | 1.7 | 0.00 | 0.00 | 0.00 | 83 | 1016.9 |
| 20260507070035 | 61 | 337 | 2.6 | 2.6 | 0.00 | 0.00 | 0.00 | 83 | 1017.2 |
| 20260507065532 | 61 | 302 | 1.7 | 1.7 | 0.00 | 0.00 | 0.00 | 83 | 1017.2 |
| 20260507065029 | 61 | 343 | 1.7 | 1.7 | 0.00 | 0.00 | 0.00 | 83 | 1016.9 |
| 20260507064527 | 61 | 322 | 0.9 | 0.9 | 0.00 | 0.00 | 0.00 | 83 | 1017.2 |
| 20260507064025 | 61 | 57 | 0.0 | 0.9 | 0.00 | 0.00 | 0.00 | 83 | 1017.2 |
| 20260507063522 | 61 | 324 | 0.9 | 0.9 | 0.00 | 0.00 | 0.00 | 83 | 1016.9 |
| 20260507063020 | 62 | 329 | 0.9 | 1.7 | 0.00 | 0.00 | 0.00 | 83 | 1016.2 |
| 20260507062516 | 62 | 305 | 2.6 | 4.3 | 0.00 | 0.00 | 0.00 | 82 | 1016.5 |
| 20260507062014 | 62 | 43 | 4.3 | 5.2 | 0.00 | 0.00 | 0.00 | 82 | 1016.9 |
| 20260507061511 | 62 | 17 | 1.7 | 1.7 | 0.00 | 0.00 | 0.00 | 82 | 1016.9 |
| 20260507061009 | 62 | 347 | 1.7 | 1.7 | 0.00 | 0.00 | 0.00 | 82 | 1016.9 |
| 20260507060506 | 62 | 338 | 3.5 | 4.3 | 0.00 | 0.00 | 0.00 | 82 | 1016.9 |
| 20260507060003 | 62 | 358 | 3.5 | 4.3 | 0.00 | 0.00 | 0.00 | 82 | 1016.5 |
| 20260507055458 | 62 | 337 | 2.6 | 2.6 | 0.00 | 0.00 | 0.00 | 81 | 1016.5 |
| 20260507054955 | 62 | 2 | 3.5 | 4.3 | 0.00 | 0.00 | 0.00 | 81 | 1016.5 |
| 20260507054450 | 62 | 19 | 1.7 | 1.7 | 0.00 | 0.00 | 0.00 | 81 | 1016.9 |
| 20260507053948 | 62 | 7 | 4.3 | 4.3 | 0.00 | 0.00 | 0.00 | 80 | 1016.9 |
| 20260507053446 | 62 | 358 | 3.5 | 4.3 | 0.00 | 0.00 | 0.00 | 80 | 1016.9 |
| 20260507052944 | 62 | 307 | 0.9 | 1.7 | 0.00 | 0.00 | 0.00 | 80 | 1016.9 |
| 20260507052441 | 62 | 338 | 3.5 | 6.1 | 0.00 | 0.00 | 0.00 | 80 | 1016.9 |
| 20260507051938 | 62 | 5 | 4.3 | 5.2 | 0.00 | 0.00 | 0.00 | 80 | 1016.5 |
| 20260507051436 | 62 | 357 | 2.6 | 2.6 | 0.00 | 0.00 | 0.00 | 81 | 1016.9 |
| 20260507050932 | 62 | 5 | 5.2 | 6.1 | 0.00 | 0.00 | 0.00 | 81 | 1016.5 |
| 20260507050429 | 62 | 326 | 3.5 | 4.3 | 0.00 | 0.00 | 0.00 | 81 | 1016.5 |
| 20260507045926 | 62 | 349 | 2.6 | 4.3 | 0.00 | 0.00 | 0.00 | 81 | 1016.5 |
| 20260507045422 | 62 | 337 | 2.6 | 2.6 | 0.00 | 0.00 | 0.00 | 81 | 1016.9 |
| 20260507044920 | 62 | 349 | 3.5 | 4.3 | 0.00 | 0.00 | 0.00 | 81 | 1016.5 |
| 20260507044416 | 62 | 27 | 2.6 | 2.6 | 0.00 | 0.00 | 0.00 | 81 | 1016.2 |
| 20260507043912 | 62 | 39 | 0.9 | 1.7 | 0.00 | 0.00 | 0.00 | 81 | 1016.9 |
| 20260507043409 | 63 | 45 | 1.7 | 1.7 | 0.00 | 0.00 | 0.00 | 81 | 1016.9 |
| 20260507042905 | 63 | 10 | 1.7 | 2.6 | 0.00 | 0.00 | 0.00 | 81 | 1016.9 |
| 20260507042402 | 63 | 11 | 1.7 | 1.7 | 0.00 | 0.00 | 0.00 | 81 | 1016.5 |
| 20260507041857 | 63 | 12 | 1.7 | 2.6 | 0.00 | 0.00 | 0.00 | 81 | 1016.5 |
| 20260507041355 | 63 | 20 | 2.6 | 4.3 | 0.00 | 0.00 | 0.00 | 81 | 1016.5 |
| 20260507040852 | 63 | 10 | 2.6 | 5.2 | 0.00 | 0.00 | 0.00 | 81 | 1016.5 |
| 20260507040348 | 63 | 7 | 2.6 | 2.6 | 0.00 | 0.00 | 0.00 | 81 | 1016.5 |
| 20260507035844 | 63 | 6 | 2.6 | 4.3 | 0.00 | 0.00 | 0.00 | 81 | 1016.2 |
| 20260507035340 | 63 | 346 | 4.3 | 5.2 | 0.00 | 0.00 | 0.00 | 81 | 1016.9 |
| 20260507034837 | 63 | 346 | 1.7 | 1.7 | 0.00 | 0.00 | 0.00 | 81 | 1016.9 |
| 20260507034334 | 63 | 10 | 4.3 | 5.2 | 0.00 | 0.00 | 0.00 | 81 | 1016.5 |
| 20260507033832 | 63 | 349 | 2.6 | 4.3 | 0.00 | 0.00 | 0.00 | 81 | 1016.2 |
| 20260507033330 | 63 | 8 | 3.5 | 4.3 | 0.00 | 0.00 | 0.00 | 81 | 1016.2 |
| 20260507032826 | 63 | 338 | 4.3 | 5.2 | 0.00 | 0.00 | 0.00 | 81 | 1015.8 |
| 20260507032322 | 63 | 342 | 5.2 | 7.0 | 0.00 | 0.00 | 0.00 | 81 | 1016.5 |
| 20260507031819 | 63 | 347 | 3.5 | 5.2 | 0.00 | 0.00 | 0.00 | 81 | 1016.5 |
| 20260507031316 | 63 | 352 | 3.5 | 4.3 | 0.00 | 0.00 | 0.00 | 81 | 1016.5 |
| 20260507030812 | 63 | 0 | 3.5 | 4.3 | 0.00 | 0.00 | 0.00 | 81 | 1016.2 |
| 20260507030310 | 63 | 352 | 2.6 | 2.6 | 0.00 | 0.00 | 0.00 | 81 | 1016.2 |
| 20260507025807 | 63 | 25 | 3.5 | 5.2 | 0.00 | 0.00 | 0.00 | 80 | 1016.2 |
| 20260507025306 | 63 | 39 | 1.7 | 1.7 | 0.00 | 0.00 | 0.00 | 80 | 1015.8 |
| 20260507024802 | 63 | 350 | 2.6 | 4.3 | 0.00 | 0.00 | 0.00 | 80 | 1015.5 |
| 20260507024259 | 63 | 28 | 3.5 | 5.2 | 0.00 | 0.00 | 0.00 | 80 | 1015.5 |
| 20260507023755 | 64 | 0 | 5.2 | 6.1 | 0.00 | 0.00 | 0.00 | 80 | 1016.2 |
| 20260507023252 | 64 | 9 | 2.6 | 4.3 | 0.00 | 0.00 | 0.00 | 80 | 1016.2 |
| 20260507022749 | 64 | 337 | 3.5 | 5.2 | 0.00 | 0.00 | 0.00 | 80 | 1016.2 |
| 20260507022245 | 64 | 12 | 2.6 | 2.6 | 0.00 | 0.00 | 0.00 | 80 | 1015.5 |
| 20260507021741 | 64 | 44 | 2.6 | 2.6 | 0.00 | 0.00 | 0.00 | 80 | 1015.5 |
| 20260507021237 | 64 | 352 | 3.5 | 4.3 | 0.00 | 0.00 | 0.00 | 80 | 1015.5 |
| 20260507020735 | 64 | 335 | 2.6 | 4.3 | 0.00 | 0.00 | 0.00 | 80 | 1015.5 |
| 20260507020232 | 64 | 309 | 2.6 | 2.6 | 0.00 | 0.00 | 0.00 | 80 | 1015.5 |
| 20260507015729 | 64 | 2 | 0.0 | 0.9 | 0.00 | 0.00 | 0.00 | 80 | 1015.2 |
| 20260507015226 | 64 | 333 | 2.6 | 2.6 | 0.00 | 0.00 | 0.00 | 80 | 1015.2 |
| 20260507014723 | 64 | 330 | 1.7 | 1.7 | 0.00 | 0.00 | 0.00 | 80 | 1015.2 |
| 20260507014219 | 64 | 50 | 0.9 | 1.7 | 0.00 | 0.00 | 0.00 | 79 | 1014.8 |
| 20260507013716 | 64 | 34 | 0.0 | 0.9 | 0.00 | 0.00 | 0.00 | 79 | 1014.8 |
| 20260507013214 | 64 | 48 | 2.6 | 2.6 | 0.00 | 0.00 | 0.00 | 79 | 1014.8 |
| 20260507012711 | 64 | 341 | 1.7 | 1.7 | 0.00 | 0.00 | 0.00 | 79 | 1015.2 |
| 20260507012206 | 64 | 319 | 1.7 | 1.7 | 0.00 | 0.00 | 0.00 | 79 | 1014.8 |
| 20260507011704 | 64 | 330 | 1.7 | 1.7 | 0.00 | 0.00 | 0.00 | 79 | 1014.5 |
| 20260507011200 | 64 | 4 | 2.6 | 4.3 | 0.00 | 0.00 | 0.00 | 79 | 1014.5 |
| 20260507010700 | 64 | 331 | 1.7 | 2.6 | 0.00 | 0.00 | 0.00 | 79 | 1014.5 |
| 20260507010156 | 64 | 9 | 2.6 | 2.6 | 0.00 | 0.00 | 0.00 | 79 | 1014.5 |
| 20260507005654 | 64 | 356 | 2.6 | 4.3 | 0.00 | 0.00 | 0.00 | 79 | 1014.5 |
| 20260507005154 | 64 | 280 | 2.6 | 2.6 | 0.00 | 0.00 | 0.00 | 79 | 1014.1 |
| 20260507004651 | 64 | 11 | 4.3 | 5.2 | 0.00 | 0.00 | 0.00 | 79 | 1013.8 |
| 20260507004149 | 64 | 337 | 2.6 | 2.6 | 0.00 | 0.00 | 0.00 | 79 | 1013.8 |
| 20260507003646 | 64 | 349 | 4.3 | 5.2 | 0.00 | 0.00 | 0.00 | 79 | 1014.1 |
| 20260507003145 | 64 | 359 | 2.6 | 4.3 | 0.00 | 0.00 | 0.00 | 79 | 1014.1 |
| 20260507002642 | 64 | 9 | 3.5 | 4.3 | 0.00 | 0.00 | 0.00 | 79 | 1014.5 |
| 20260507002138 | 64 | 358 | 3.5 | 5.2 | 0.00 | 0.00 | 0.00 | 79 | 1014.1 |
| 20260507001635 | 64 | 355 | 4.3 | 6.1 | 0.00 | 0.00 | 0.00 | 79 | 1014.1 |
| 20260507001132 | 64 | 25 | 2.6 | 2.6 | 0.00 | 0.00 | 0.00 | 79 | 1013.8 |
| 20260507000629 | 64 | 334 | 3.5 | 4.3 | 0.00 | 0.00 | 0.00 | 78 | 1014.1 |
| 20260507000124 | 64 | 356 | 4.3 | 5.2 | 0.00 | 0.00 | 0.00 | 78 | 1013.8 |
| 20260506235622 | 64 | 25 | 3.5 | 4.3 | 0.00 | 0.00 | 0.00 | 78 | 1013.8 |
| 20260506235122 | 64 | 37 | 3.5 | 5.2 | 0.00 | 0.00 | 0.00 | 78 | 1014.1 |
| 20260506234619 | 64 | 348 | 2.6 | 4.3 | 0.00 | 0.00 | 0.00 | 78 | 1013.8 |
| 20260506234116 | 64 | 17 | 2.6 | 4.3 | 0.00 | 0.00 | 0.00 | 78 | 1013.8 |
| 20260506233613 | 64 | 347 | 2.6 | 4.3 | 0.00 | 0.00 | 0.00 | 78 | 1013.8 |
| 20260506233110 | 64 | 325 | 2.6 | 4.3 | 0.00 | 0.00 | 0.00 | 78 | 1013.8 |
| 20260506232606 | 64 | 313 | 3.5 | 4.3 | 0.00 | 0.00 | 0.00 | 78 | 1013.8 |
| 20260506232102 | 64 | 7 | 4.3 | 6.1 | 0.00 | 0.00 | 0.00 | 78 | 1013.5 |
| 20260506231559 | 65 | 353 | 3.5 | 4.3 | 0.00 | 0.00 | 0.00 | 77 | 1013.8 |
| 20260506231058 | 65 | 346 | 3.5 | 4.3 | 0.00 | 0.00 | 0.00 | 77 | 1013.8 |
| 20260506230554 | 64 | 41 | 5.2 | 7.0 | 0.00 | 0.00 | 0.00 | 77 | 1013.5 |
| 20260506230051 | 65 | 209 | 3.5 | 6.1 | 0.00 | 0.00 | 0.00 | 77 | 1013.8 |
| 20260506225548 | 65 | 347 | 4.3 | 5.2 | 0.00 | 0.00 | 0.00 | 77 | 1013.5 |
| 20260506225044 | 65 | 15 | 4.3 | 6.1 | 0.00 | 0.00 | 0.00 | 76 | 1013.5 |
| 20260506224541 | 65 | 32 | 3.5 | 6.1 | 0.00 | 0.00 | 0.00 | 76 | 1013.5 |
| 20260506224038 | 65 | 6 | 2.6 | 4.3 | 0.00 | 0.00 | 0.00 | 76 | 1013.8 |
| 20260506223533 | 66 | 27 | 4.3 | 6.1 | 0.00 | 0.00 | 0.00 | 75 | 1013.5 |
| 20260506223030 | 66 | 6 | 7.0 | 8.7 | 0.00 | 0.00 | 0.00 | 74 | 1013.1 |
| 20260506222527 | 67 | 354 | 3.5 | 4.3 | 0.00 | 0.00 | 0.00 | 75 | 1013.5 |
| 20260506222023 | 67 | 3 | 4.3 | 5.2 | 0.00 | 0.00 | 0.00 | 75 | 1013.5 |
| 20260506221521 | 67 | 1 | 4.3 | 6.1 | 0.00 | 0.00 | 0.00 | 75 | 1013.5 |
| 20260506221019 | 67 | 359 | 3.5 | 5.2 | 0.00 | 0.00 | 0.00 | 74 | 1013.5 |
| 20260506220514 | 67 | 60 | 2.6 | 2.6 | 0.00 | 0.00 | 0.00 | 74 | 1013.5 |
| 20260506220010 | 68 | 351 | 6.1 | 7.0 | 0.00 | 0.00 | 0.00 | 73 | 1013.5 |
| 20260506215508 | 68 | 266 | 2.6 | 4.3 | 0.00 | 0.00 | 0.00 | 73 | 1013.5 |
| 20260506215003 | 68 | 21 | 4.3 | 6.1 | 0.00 | 0.00 | 0.00 | 73 | 1013.5 |
| 20260506214500 | 68 | 17 | 2.6 | 2.6 | 0.00 | 0.00 | 0.00 | 73 | 1013.1 |
| 20260506213957 | 68 | 21 | 6.1 | 8.7 | 0.00 | 0.00 | 0.00 | 72 | 1013.1 |
| 20260506213455 | 69 | 354 | 3.5 | 4.3 | 0.00 | 0.00 | 0.00 | 72 | 1013.1 |
| 20260506212952 | 69 | 3 | 5.2 | 6.1 | 0.00 | 0.00 | 0.00 | 72 | 1013.5 |
| 20260506212448 | 69 | 12 | 4.3 | 6.1 | 0.00 | 0.00 | 0.00 | 73 | 1013.1 |
| 20260506211943 | 69 | 343 | 6.1 | 7.0 | 0.00 | 0.00 | 0.00 | 72 | 1013.1 |
| 20260506211439 | 70 | 65 | 4.3 | 5.2 | 0.00 | 0.00 | 0.00 | 72 | 1013.1 |
| 20260506210937 | 70 | 355 | 4.3 | 4.3 | 0.00 | 0.00 | 0.00 | 71 | 1013.1 |
| 20260506210433 | 71 | 18 | 3.5 | 5.2 | 0.00 | 0.00 | 0.00 | 72 | 1013.5 |
| 20260506205930 | 70 | 16 | 3.5 | 5.2 | 0.00 | 0.00 | 0.00 | 72 | 1013.5 |
| 20260506205426 | 70 | 359 | 3.5 | 4.3 | 0.00 | 0.00 | 0.00 | 73 | 1013.5 |
| 20260506204923 | 70 | 23 | 3.5 | 5.2 | 0.00 | 0.00 | 0.00 | 74 | 1013.5 |
| 20260506204421 | 70 | 337 | 3.5 | 5.2 | 0.00 | 0.00 | 0.00 | 76 | 1013.5 |
| 20260506203918 | 70 | 338 | 3.5 | 4.3 | 0.00 | 0.00 | 0.00 | 75 | 1013.5 |
| 20260506203415 | 70 | 33 | 3.5 | 5.2 | 0.00 | 0.00 | 0.00 | 76 | 1013.5 |
| 20260506202911 | 70 | 5 | 4.3 | 6.1 | 0.00 | 0.00 | 0.00 | 75 | 1013.5 |
| 20260506202409 | 71 | 356 | 4.3 | 5.2 | 0.00 | 0.00 | 0.00 | 75 | 1013.5 |
| 20260506201905 | 71 | 26 | 4.3 | 7.0 | 0.00 | 0.00 | 0.00 | 74 | 1013.1 |
| 20260506201403 | 72 | 353 | 6.1 | 6.1 | 0.00 | 0.00 | 0.00 | 74 | 1012.7 |
| 20260506200859 | 73 | 18 | 7.0 | 7.8 | 0.00 | 0.00 | 0.00 | 73 | 1012.7 |
| 20260506200355 | 74 | 352 | 3.5 | 4.3 | 0.00 | 0.00 | 0.00 | 73 | 1012.7 |